{"data":{"norad_id":68106,"epoch":"2026-09-19T07:35:30.168096Z","epoch_age_seconds":158416,"freshness":"FRESH","line1":"1 68106U 26044F   26262.31632139  .00014334  00000+0  44546-3 0  9993","line2":"2 68106  97.2846 221.2429 0001800  86.5448 273.6000 15.33444590 31252","mean_motion":15.3344459,"eccentricity":0.00018,"inclination_deg":97.2846,"raan_deg":221.2429,"arg_perigee_deg":86.5448,"mean_anomaly_deg":273.6,"bstar":0.00044546,"rev_number":3125,"period_min":93.906229764716,"perigee_km":464.31253169896,"apogee_km":466.77625700093,"semimajor_km":6843.6813943499,"source":"CELESTRAK","updated_at":"2026-09-20T09:00:43.785978Z"}}